[[{"header":{"parameterUnit":"m.s-1","parameterCategory":2,"la1":30.2992,"la2":30.254,"lo1":-89.0895,"lo2":-89.0443,"dy":0.0025,"dx":0.0025,"nx":19,"ny":19,"refTime":"2026-04-26T03:00:00:Z","depth":"0","parameterNumber":2,"parameterNumberName":"U-component_of_CURRENTS"},"data":[0,0,0,0.446,0.4462,0.4518,0.4518,0.4598,0.4599,0,0,0,0,0,0,0,0,0,0,0,0.4425,0.4425,0.446,0.4462,0.4518,0.4518,0.4598,0.4599,0,0,0,0,0,0,0,0,0,0,0,0.4424,0.4425,0.4425,0.4462,0.4518,0.4518,0.4598,0.455,0,0,0,0,0,0,0,0,0,0,0.4492,0.4456,0.4425,0.4425,0.4463,0.4518,0.4518,0.4547,0.4553,0.458,0,0.4589,0,0.4611,0.4606,0.4606,0,0,0,0.4446,0.4451,0.4481,0.4425,0.4464,0.4518,0.4488,0.455,0.4556,0.4587,0.459,0.4594,0.4613,0.4607,0.4607,0.4657,0.4657,0,0,0.4443,0.4422,0.4476,0.4485,0.448,0.4487,0.449,0.4553,0.4553,0.4591,0.4596,0.4614,0.4607,0.4608,0.4657,0.4657,0,0,0,0.4445,0.442,0.4447,0.4481,0.45,0.4489,0.4493,0.4549,0.4562,0.4597,0.4615,0.4608,0.4609,0.4657,0.4657,0.463,0,0,0,0.4442,0.4423,0.4446,0.4432,0.4498,0.4524,0.4487,0.4557,0.4566,0.4615,0.4608,0.461,0.4658,0.4657,0.4632,0.4599,0,0,0,0.4422,0.4421,0.443,0.4431,0.4466,0.4523,0.4538,0.4559,0.4578,0.4606,0.4611,0.4658,0.4657,0.4633,0.4601,0.462,0,0,0,0.4394,0.44,0.4429,0.4438,0.4466,0.4492,0.4538,0.4559,0.4578,0.4609,0.4657,0.4657,0.4633,0.4603,0.4621,0.4478,0.4462,0,0,0.4387,0.4399,0.4404,0.4433,0.4447,0.4483,0.4493,0.4542,0.458,0.4636,0.4637,0.4631,0.4602,0.4621,0.4445,0.443,0,0,0,0.4392,0.4388,0.4398,0.4414,0.4448,0.4464,0.4511,0.4538,0.4583,0.4594,0.4627,0.4609,0.4622,0.4537,0.4525,0.4281,0.4654,0.4654,0.4654,0.4285,0.4332,0.4329,0.4377,0.44,0.4452,0.4467,0.4511,0.4561,0.4574,0.4585,0.4573,0.4481,0.4471,0.422,0.4594,0.4594,0.4594,0.4594,0.4227,0.421,0.4273,0.4289,0.4332,0.4349,0.4431,0.447,0.4525,0.4553,0.457,0.4509,0.4456,0.4193,0.4592,0.4592,0.4593,0.4593,0.4593,0.4146,0.414,0.4168,0.4188,0.4213,0.4284,0.4311,0.4387,0.4482,0.4498,0.4448,0.4446,0.422,0.4532,0.4532,0.4532,0.4532,0.4532,0.4532,0.4015,0.4051,0.4021,0.408,0.4081,0.4125,0.4241,0.4294,0.436,0.4389,0.4389,0.4156,0.4555,0.4562,0.4531,0.4531,0.4531,0.4531,0.4531,0.3858,0.3891,0.3844,0.3839,0.3867,0.382,0.4014,0.4075,0.4186,0.4189,0.3948,0.4341,0.4339,0.4347,0.4349,0.4264,0.4264,0.4264,0.4264,0.3713,0.3745,0.3605,0.3568,0.3595,0.3648,0.3523,0.3635,0.3708,0.3659,0.37,0.3631,0.3653,0.3609,0.3633,0.362,0.3353,0.3351,0.335,0.3547,0.3547,0.3387,0.3397,0.3434,0.3407,0.3138,0.2948,0.3148,0.3294,0.3384,0.3423,0.3308,0.3362,0.3289,0.3343,0.3323,0,0]},{"header":{"parameterUnit":"m.s-1","parameterCategory":2,"la1":30.2992,"la2":30.254,"lo1":-89.0895,"lo2":-89.0443,"dy":0.0025,"dx":0.0025,"nx":19,"ny":19,"refTime":"2026-04-26T03:00:00:Z","depth":"0","parameterNumber":3,"parameterNumberName":"V-component_of_CURRENTS"},"data":[0,0,0,-0.0828,-0.083,-0.0868,-0.0868,-0.08,-0.0799,0,0,0,0,0,0,0,0,0,0,0,-0.0803,-0.0803,-0.0828,-0.083,-0.0868,-0.0868,-0.08,-0.0799,0,0,0,0,0,0,0,0,0,0,0,-0.0803,-0.0803,-0.0803,-0.083,-0.0868,-0.0868,-0.08,-0.0798,0,0,0,0,0,0,0,0,0,0,-0.0775,-0.0771,-0.0803,-0.0803,-0.083,-0.0868,-0.0868,-0.0799,-0.0798,-0.0752,0,-0.0759,0,-0.0784,-0.0793,-0.0792,0,0,0,-0.082,-0.0772,-0.0786,-0.0803,-0.0831,-0.0868,-0.0848,-0.0799,-0.0798,-0.075,-0.0758,-0.0757,-0.0783,-0.0792,-0.0792,-0.0627,-0.0626,0,0,-0.0818,-0.0803,-0.0787,-0.0785,-0.0839,-0.0847,-0.0849,-0.08,-0.0792,-0.0758,-0.0756,-0.0782,-0.0791,-0.0791,-0.0628,-0.0626,0,0,0,-0.0818,-0.0801,-0.0819,-0.0787,-0.0807,-0.0848,-0.0851,-0.0794,-0.0802,-0.0756,-0.0781,-0.0791,-0.079,-0.0629,-0.0627,-0.0531,0,0,0,-0.0817,-0.0803,-0.0818,-0.0808,-0.0809,-0.0818,-0.0846,-0.0805,-0.0801,-0.0781,-0.0791,-0.0789,-0.063,-0.0628,-0.0536,-0.0472,0,0,0,-0.0801,-0.0801,-0.0806,-0.0807,-0.0831,-0.082,-0.0825,-0.0805,-0.0815,-0.0792,-0.0788,-0.0631,-0.0628,-0.0541,-0.0481,-0.0384,0,0,0,-0.0783,-0.0774,-0.0806,-0.0781,-0.083,-0.0789,-0.0825,-0.0801,-0.0778,-0.079,-0.063,-0.0627,-0.0542,-0.0486,-0.039,-0.02,-0.0158,0,0,-0.076,-0.0771,-0.0751,-0.078,-0.0722,-0.0783,-0.0687,-0.069,-0.0717,-0.0639,-0.0636,-0.0534,-0.0481,-0.0385,-0.005,-0.0012,0,0,0,-0.0733,-0.071,-0.0698,-0.0672,-0.0665,-0.0607,-0.063,-0.0616,-0.0568,-0.0695,-0.0508,-0.0476,-0.0419,-0.0317,-0.0286,-0.0328,-0.0615,-0.0616,-0.0616,-0.0609,-0.0617,-0.0554,-0.0542,-0.0509,-0.0479,-0.0423,-0.04,-0.0464,-0.0425,-0.038,-0.0212,-0.0101,-0.0076,-0.0121,-0.037,-0.037,-0.037,-0.0369,-0.0499,-0.0434,-0.0431,-0.0387,-0.0333,-0.0265,-0.02,-0.0227,-0.0142,-0.0242,-0.0192,-0.0197,-0.0036,-0.0097,-0.0363,-0.0364,-0.0365,-0.0365,-0.0366,-0.038,-0.035,-0.035,-0.0261,-0.0165,-0.0128,0.0021,-0.0003,-0.0031,0.002,0.0113,0.0113,0.0044,0.0023,0.0024,0.0024,0.0025,0.0026,0.0026,-0.0242,-0.0243,-0.0163,-0.0109,-0.0047,0.005,0.0139,0.0213,0.0282,0.0267,0.0268,0.013,-0.0092,-0.0125,0.0037,0.0035,0.0034,0.0033,0.0032,-0.0044,-0.0078,0.0031,0.009,0.0211,0.0372,0.041,0.0609,0.0644,0.0721,0.054,0.0413,0.0408,0.0384,0.0364,0.0644,0.0644,0.0644,0.0644,0.0108,0.0099,0.0233,0.0329,0.0455,0.0532,0.0854,0.0992,0.095,0.0913,0.0764,0.0696,0.0673,0.0674,0.0644,0.0624,0.0964,0.0964,0.0964,0.0291,0.028,0.0413,0.0438,0.0555,0.0734,0.1079,0.1315,0.1185,0.096,0.0671,0.0657,0.0527,0.0494,0.0462,0.0423,0.0377,0,0]}],[{"header":{"parameterUnit":"m.s-1","parameterCategory":2,"la1":30.2992,"la2":30.254,"lo1":-89.0895,"lo2":-89.0443,"dy":0.0025,"dx":0.0025,"nx":19,"ny":19,"refTime":"2026-04-26T03:00:00:Z","depth":"2","parameterNumber":2,"parameterNumberName":"U-component_of_CURRENTS"},"data":[0,0,0,0.2762,0.2762,0.2749,0.2749,0.2778,0.2778,0,0,0,0,0,0,0,0,0,0,0,0.2797,0.2798,0.2762,0.2762,0.2749,0.2749,0.2778,0.2778,0,0,0,0,0,0,0,0,0,0,0,0.2797,0.2798,0.2799,0.2762,0.2749,0.2749,0.2778,0.2777,0,0,0,0,0,0,0,0,0,0,0.2784,0.2837,0.2798,0.2799,0.2762,0.2749,0.2749,0.2776,0.2777,0.2796,0,0.2816,0,0.2785,0.2781,0.2781,0,0,0,0.2765,0.2837,0.28,0.2799,0.2761,0.2749,0.2755,0.2776,0.2777,0.2797,0.2816,0.2816,0.2785,0.2781,0.2781,0.2942,0.2943,0,0,0.2765,0.2821,0.28,0.2802,0.2788,0.2756,0.2755,0.2776,0.2811,0.2816,0.2816,0.2786,0.2781,0.2782,0.2941,0.2942,0,0,0,0.2766,0.2823,0.2786,0.2802,0.2788,0.2755,0.2754,0.2811,0.279,0.2816,0.2786,0.2782,0.2782,0.2939,0.2941,0.3106,0,0,0,0.2766,0.2821,0.2787,0.2823,0.2788,0.2799,0.2789,0.2789,0.2789,0.2786,0.2782,0.2783,0.2937,0.294,0.3098,0.3132,0,0,0,0.2793,0.2824,0.2824,0.2826,0.281,0.2797,0.2779,0.2788,0.2771,0.2781,0.2783,0.2936,0.294,0.3091,0.3121,0.3132,0,0,0,0.2845,0.2868,0.2827,0.2858,0.2811,0.2804,0.2778,0.2794,0.2809,0.2782,0.2938,0.2941,0.3089,0.3114,0.3127,0.2808,0.2808,0,0,0.2887,0.2877,0.2888,0.2847,0.2856,0.2804,0.2874,0.2884,0.2874,0.293,0.2933,0.3101,0.312,0.3131,0.3008,0.3001,0,0,0,0.2907,0.2921,0.2916,0.2923,0.2896,0.2943,0.2922,0.2956,0.3058,0.2897,0.3125,0.3131,0.3132,0.293,0.2927,0.2957,0.2957,0.2957,0.2956,0.2984,0.2968,0.3003,0.2997,0.302,0.3049,0.3115,0.3171,0.3137,0.3237,0.3286,0.3431,0.3223,0.3215,0.3328,0.3329,0.3329,0.333,0.333,0.3009,0.3004,0.3067,0.3108,0.3167,0.3247,0.334,0.3375,0.3488,0.3454,0.3448,0.314,0.3219,0.3344,0.3341,0.3339,0.3338,0.3337,0.3336,0.2966,0.2977,0.306,0.3153,0.3298,0.3377,0.3449,0.3538,0.3623,0.3677,0.3372,0.3363,0.3467,0.3663,0.3663,0.3664,0.3664,0.3664,0.3664,0.2887,0.2971,0.3017,0.3184,0.324,0.3362,0.3501,0.3522,0.3502,0.3493,0.3489,0.354,0.353,0.3484,0.3669,0.3668,0.3667,0.3667,0.3667,0.2789,0.2866,0.2852,0.2912,0.3071,0.3014,0.3219,0.3159,0.3257,0.3186,0.3354,0.336,0.3246,0.3243,0.3189,0.3287,0.3287,0.3287,0.3287,0.2706,0.2752,0.2677,0.2662,0.2737,0.281,0.2561,0.2538,0.2713,0.2759,0.2782,0.2647,0.2672,0.252,0.2534,0.2461,0.237,0.2369,0.2367,0.2643,0.2586,0.2471,0.2481,0.255,0.2492,0.2098,0.1836,0.2014,0.2336,0.267,0.3216,0.3073,0.3092,0.2898,0.2906,0.2806,0,0]},{"header":{"parameterUnit":"m.s-1","parameterCategory":2,"la1":30.2992,"la2":30.254,"lo1":-89.0895,"lo2":-89.0443,"dy":0.0025,"dx":0.0025,"nx":19,"ny":19,"refTime":"2026-04-26T03:00:00:Z","depth":"2","parameterNumber":3,"parameterNumberName":"V-component_of_CURRENTS"},"data":[0,0,0,-0.0182,-0.0184,-0.029,-0.029,-0.0383,-0.0384,0,0,0,0,0,0,0,0,0,0,0,-0.0161,-0.0162,-0.0182,-0.0184,-0.029,-0.029,-0.0383,-0.0384,0,0,0,0,0,0,0,0,0,0,0,-0.0161,-0.0161,-0.0162,-0.0184,-0.0289,-0.029,-0.0383,-0.0319,0,0,0,0,0,0,0,0,0,0,-0.0223,-0.0232,-0.0161,-0.0162,-0.0184,-0.0289,-0.029,-0.0316,-0.0323,-0.0317,0,-0.0335,0,-0.0344,-0.0387,-0.0387,0,0,0,-0.0204,-0.0228,-0.0219,-0.0162,-0.0185,-0.0289,-0.0248,-0.032,-0.0327,-0.0325,-0.0336,-0.0339,-0.0346,-0.0387,-0.0388,-0.033,-0.0329,0,0,-0.0198,-0.0216,-0.0214,-0.0223,-0.0214,-0.0244,-0.0251,-0.0325,-0.0354,-0.0336,-0.0342,-0.0347,-0.0388,-0.0388,-0.0331,-0.033,0,0,0,-0.0168,-0.0212,-0.0204,-0.022,-0.0233,-0.0247,-0.0254,-0.0352,-0.0339,-0.0343,-0.0348,-0.0388,-0.0389,-0.0332,-0.0331,-0.0285,0,0,0,-0.0165,-0.0191,-0.0201,-0.0218,-0.0232,-0.0306,-0.0279,-0.0334,-0.0343,-0.0348,-0.0388,-0.0389,-0.0333,-0.0331,-0.0289,-0.0211,0,0,0,-0.0156,-0.0192,-0.0195,-0.0218,-0.0248,-0.0305,-0.03,-0.0337,-0.0344,-0.0387,-0.0389,-0.0334,-0.0332,-0.0292,-0.0218,-0.0087,0,0,0,-0.018,-0.0187,-0.0197,-0.0206,-0.0247,-0.0237,-0.03,-0.0335,-0.0369,-0.0388,-0.0333,-0.0331,-0.0293,-0.0222,-0.0092,0.0028,0.0064,0,0,-0.0187,-0.019,-0.0184,-0.0193,-0.0169,-0.0224,-0.0201,-0.0286,-0.0323,-0.0312,-0.0312,-0.0288,-0.0218,-0.0088,0.0165,0.0197,0,0,0,-0.0182,-0.0183,-0.0176,-0.0176,-0.0166,-0.0149,-0.0222,-0.0223,-0.0244,-0.0327,-0.0252,-0.0207,-0.0127,-0.0066,-0.004,-0.032,-0.032,-0.032,-0.032,-0.0141,-0.0144,-0.0123,-0.0117,-0.0113,-0.0109,-0.0081,-0.0088,-0.0174,-0.0157,-0.0147,0.0024,0.0087,0.0109,-0.015,-0.0149,-0.0149,-0.0149,-0.0149,-0.0067,-0.0029,-0.0058,-0.0057,-0.003,-0.0021,0.0039,0.0006,0.0086,-0.0031,0.0042,0.0008,0.014,-0.0145,-0.0145,-0.0146,-0.0146,-0.0147,-0.0147,0.0044,0.0048,0.0013,0.0043,0.0059,0.0065,0.0232,0.0222,0.0169,0.0227,0.0309,0.0309,0.0086,0.0239,0.024,0.0241,0.0242,0.0242,0.0243,0.0176,0.0139,0.0183,0.0164,0.0205,0.0278,0.0367,0.0463,0.0505,0.044,0.044,0.0158,0.0145,0.0113,0.0257,0.0254,0.0253,0.0251,0.025,0.0307,0.0288,0.0385,0.0426,0.0499,0.0651,0.0702,0.0856,0.0905,0.0944,0.0589,0.0576,0.06,0.0579,0.056,0.0812,0.0812,0.0812,0.0812,0.0428,0.0417,0.054,0.0647,0.0787,0.0826,0.1073,0.109,0.1023,0.0904,0.0899,0.0785,0.0762,0.0786,0.076,0.074,0.1039,0.1039,0.1039,0.054,0.0561,0.0669,0.0712,0.0865,0.1008,0.1187,0.1161,0.1021,0.1037,0.0832,0.0848,0.066,0.0631,0.0645,0.0612,0.0571,0,0]}],[{"header":{"parameterUnit":"m.s-1","parameterCategory":2,"la1":30.2992,"la2":30.254,"lo1":-89.0895,"lo2":-89.0443,"dy":0.0025,"dx":0.0025,"nx":19,"ny":19,"refTime":"2026-04-26T03:00:00:Z","depth":"4","parameterNumber":2,"parameterNumberName":"U-component_of_CURRENTS"},"data":[0,0,0,0.0296,0.0297,0.0423,0.0423,0.0729,0.0732,0,0,0,0,0,0,0,0,0,0,0,0.0262,0.0262,0.0296,0.0298,0.0423,0.0424,0.0729,0.0732,0,0,0,0,0,0,0,0,0,0,0,0.0261,0.0262,0.0262,0.0298,0.0422,0.0424,0.0728,0.0605,0,0,0,0,0,0,0,0,0,0,0.0468,0.0411,0.0262,0.0262,0.0298,0.0422,0.0424,0.0598,0.0613,0.0705,0,0.0709,0,0.0716,0.0753,0.0754,0,0,0,0.0327,0.0398,0.0419,0.0262,0.0299,0.0422,0.0375,0.0605,0.0622,0.0726,0.0713,0.0724,0.0721,0.0755,0.0757,0.1011,0.1011,0,0,0.032,0.0307,0.0407,0.0429,0.0317,0.037,0.0378,0.0614,0.0637,0.0714,0.073,0.0726,0.0757,0.076,0.101,0.1011,0,0,0,0.0281,0.0302,0.0316,0.0418,0.0422,0.0373,0.0382,0.0627,0.0627,0.0733,0.0729,0.0759,0.0763,0.101,0.1011,0.1066,0,0,0,0.0278,0.0277,0.0312,0.031,0.0416,0.0507,0.039,0.0611,0.0637,0.0728,0.0759,0.0766,0.1009,0.101,0.1063,0.111,0,0,0,0.0258,0.0275,0.0281,0.0308,0.0345,0.0502,0.0517,0.0616,0.0634,0.0755,0.0767,0.1009,0.101,0.1061,0.1105,0.1241,0,0,0,0.0254,0.026,0.0281,0.0302,0.0344,0.0433,0.0515,0.0604,0.0698,0.0761,0.101,0.1011,0.106,0.1102,0.1237,0.1027,0,0,0,0.0254,0.026,0.0273,0.0293,0.0346,0.0419,0.0549,0.0693,0.0751,0.0947,0.0952,0.1064,0.1105,0.124,0.1086,0,0,0,0,0.0269,0.0269,0.0281,0.0333,0.0404,0.0536,0.0659,0.072,0.0889,0.0806,0.1069,0.1094,0.1178,0.104,0.1015,0.1015,0.1015,0.1015,0.1015,0.0295,0.0319,0.036,0.0412,0.0493,0.0645,0.0736,0.0864,0.0932,0.0994,0.1141,0.1285,0.1137,0.1131,0.1132,0.1132,0.1132,0.1132,0.1133,0.0311,0.0342,0.0428,0.0475,0.0632,0.0786,0.0936,0.0986,0.1197,0.1179,0.1259,0.1107,0.1138,0.1137,0.1136,0.1136,0.1135,0.1135,0.1135,0.0336,0.035,0.0404,0.0524,0.0727,0.0898,0.1076,0.1217,0.1282,0.1359,0.1333,0.1365,0.1363,0.1481,0.1482,0.1482,0.1483,0.1484,0.1484,0.034,0.0379,0.0489,0.0581,0.0716,0.0938,0.122,0.1322,0.1476,0.1406,0.147,0.1405,0.1394,0.1386,0.1497,0.1494,0.1493,0.1492,0.1491,0.0314,0.0392,0.0495,0.0614,0.0811,0.0919,0.1214,0.1388,0.1516,0.1529,0.1417,0.1417,0.1403,0.1394,0.1384,0.15,0.1497,0.1495,0,0.0351,0.0377,0.0562,0.0666,0.0761,0.0896,0.1049,0.1205,0.1332,0.1261,0.1471,0.1335,0.1335,0.1304,0.1293,0.1273,0,0,0,0.0381,0.0443,0.0555,0.0619,0.0692,0.0837,0.1063,0.1073,0.132,0.1381,0.144,0.1455,0.1455,0.1533,0.1515,0.1501,0.1489,0,0]},{"header":{"parameterUnit":"m.s-1","parameterCategory":2,"la1":30.2992,"la2":30.254,"lo1":-89.0895,"lo2":-89.0443,"dy":0.0025,"dx":0.0025,"nx":19,"ny":19,"refTime":"2026-04-26T03:00:00:Z","depth":"4","parameterNumber":3,"parameterNumberName":"V-component_of_CURRENTS"},"data":[0,0,0,0.073,0.0731,0.0806,0.0806,0.0851,0.0852,0,0,0,0,0,0,0,0,0,0,0,0.0719,0.072,0.0729,0.0731,0.0805,0.0806,0.0851,0.0852,0,0,0,0,0,0,0,0,0,0,0,0.0719,0.072,0.0721,0.0731,0.0805,0.0806,0.0851,0.081,0,0,0,0,0,0,0,0,0,0,0.0744,0.0732,0.072,0.0721,0.0732,0.0805,0.0806,0.0808,0.0812,0.08,0,0.0822,0,0.0826,0.0853,0.0853,0,0,0,0.074,0.0729,0.0752,0.0721,0.0732,0.0805,0.0774,0.0811,0.0815,0.0805,0.0823,0.0824,0.0827,0.0853,0.0853,0.0803,0.0802,0,0,0.0736,0.0727,0.0749,0.0755,0.0763,0.0772,0.0777,0.0814,0.082,0.0823,0.0825,0.0827,0.0853,0.0853,0.0804,0.0803,0,0,0,0.0718,0.0724,0.0747,0.0753,0.0764,0.0774,0.0779,0.0819,0.0828,0.0826,0.0828,0.0853,0.0853,0.0804,0.0803,0.0874,0,0,0,0.0716,0.0713,0.0746,0.074,0.0764,0.0796,0.0783,0.0827,0.083,0.0828,0.0853,0.0853,0.0805,0.0804,0.0874,0.0912,0,0,0,0.0714,0.0712,0.0726,0.074,0.0767,0.0796,0.0808,0.0828,0.0831,0.0853,0.0853,0.0806,0.0804,0.0874,0.091,0.0904,0,0,0,0.0695,0.0715,0.0726,0.0746,0.0766,0.0799,0.0808,0.0825,0.0842,0.0853,0.0805,0.0803,0.0873,0.0909,0.0903,0.0841,0,0,0,0.0705,0.0716,0.0726,0.0737,0.0764,0.0789,0.0811,0.083,0.0809,0.0793,0.0792,0.0874,0.091,0.0904,0.0746,0,0,0,0,0.0718,0.0723,0.0723,0.0757,0.0785,0.0812,0.0836,0.0817,0.0809,0.081,0.0821,0.0841,0.0836,0.0793,0.0796,0.0796,0.0796,0.0796,0.0796,0.0706,0.0736,0.0772,0.0805,0.0824,0.0836,0.0826,0.0806,0.0813,0.0791,0.086,0.0851,0.0804,0.0809,0.0809,0.081,0.081,0.081,0.081,0.0741,0.0784,0.0829,0.0885,0.092,0.0962,0.0888,0.0866,0.0843,0.0841,0.0833,0.0822,0.0816,0.0815,0.0814,0.0813,0.0813,0.0812,0.0812,0.0763,0.0796,0.0869,0.0975,0.1048,0.1048,0.1032,0.0993,0.0916,0.0909,0.0864,0.088,0.0918,0.0935,0.0935,0.0935,0.0935,0.0935,0.0935,0.0783,0.085,0.0928,0.1035,0.1108,0.1167,0.1137,0.108,0.1022,0.0924,0.0961,0.0892,0.0888,0.0922,0.0937,0.0937,0.0937,0.0937,0.0936,0.0778,0.0834,0.0912,0.0997,0.1124,0.1169,0.1187,0.1069,0.0997,0.0912,0.0891,0.0893,0.0858,0.0855,0.0887,0.0893,0.0892,0.0892,0,0.0758,0.0796,0.087,0.0949,0.1025,0.1125,0.1046,0.1,0.091,0.0893,0.0967,0.0947,0.0946,0.091,0.0906,0.0945,0,0,0,0.0729,0.0762,0.0777,0.0875,0.0965,0.0976,0.1013,0.0945,0.0965,0.0866,0.0873,0.0878,0.0932,0.0944,0.0894,0.0889,0.0941,0,0]}]]